User: anonymous   Login
Location: ???????
(55.9142°N, 37.8256°E)
Time: 11:41:26
(UTC+00:00)
Language:

CZ-2D R/B - Orbit

View from above orbital plane
View from above orbital plane
View from above satellite
View from above satellite

Ground track
Ground track

The orbit data is extracted from the following two-line orbital elements,

1 37932U 11068C   24172.12361907  .00000119  00000-0  72825-4 0  9994
2 37932  98.7970 113.9008 0036527 193.4360 177.9636 14.22523359653141
Epoch (UTC): 20 June 2024 02:58:00
Eccentricity: 0.0036527
inclination: 98.7970°
perigee height: 790 km
apogee height: 843 km
right ascension of ascending node: 113.9008°
argument of perigee: 193.4360°
revolutions per day: 14.22523359
mean anomaly at epoch: 177.9636°
orbit number at epoch: 65314

The dashed part of the orbit path shows where the satellite is in the earth's shadow,  

DLR